Weather observations for the past three days for
Melfa / Accomack Airport
Metric (Imperial)
Date Time (edt) Wind (kph) Vis. (km) Weather Sky Cond. Temperature (ºC) Relative Humidity Wind Chill (°C) Heat Index (°C) Pressure Precipitation (cm)
Air Dwpt 6 hour altimeter (cm) sea level (mb) 1 hr 3 hr 6 hr
Max. Min.
21 12:35 W 7 16.09 Partly Cloudy SCT042 0 0 0% 76.81 0.0
21 12:15 S 7 16.09 Partly Cloudy SCT042 0 0 0% 76.81 0.0
21 11:55 Calm 16.09 Fair CLR 0 0 0% 76.84 0.0
21 11:35 W 11 16.09 Partly Cloudy SCT035 0 0 0% 76.84 0.0
21 11:15 SW 13 16.09 Partly Cloudy SCT035 0 0 0% 76.84 0.0
21 10:55 W 15 16.09 Partly Cloudy SCT033 0 0 0% 76.84 0.0
21 10:35 W 11 16.09 Fair CLR 0 0 0% 76.84 0.0
21 10:15 W 17 16.09 Fair CLR 0 0 0% 76.84 0.0
21 09:55 W 11 16.09 Partly Cloudy SCT027 0 0 0% 76.84 0.0
21 09:35 W 15 16.09 Partly Cloudy SCT022 0 0 0% 76.86 0.0
21 09:15 W 11 16.09 Mostly Cloudy BKN022 0 0 0% 76.86 0.0
21 08:55 SW 11 16.09 Partly Cloudy SCT018 0 0 0% 76.86 0.0
21 08:35 W 11 16.09 Partly Cloudy SCT014 0 0 0% 76.86 0.0
21 08:15 SW 7 16.09 Fair CLR 0 0 0% 76.89 0.0
21 07:55 SW 7 16.09 Fair CLR 0 0 0% 76.89 0.0
21 07:35 SW 7 16.09 Fair CLR 0 0 0% 76.89 0.0
21 07:15 SW 6 16.09 Fair CLR 0 0 0% 76.89 0.0
21 06:55 S 6 16.09 Fair CLR 0 0 0% 76.89 0.0
21 06:35 S 6 16.09 Fair CLR 0 0 0% 76.89 0.0
21 06:15 SW 6 16.09 Fair CLR 0 0 0% 76.89 0.0
21 05:55 SW 6 16.09 Fair CLR 0 0 0% 76.89 0.0
21 05:35 SW 6 16.09 Fair CLR 0 0 0% 76.89 0.0
21 05:15 SW 6 16.09 Fair CLR 0 0 0% 76.86 0.0
21 04:55 SW 7 16.09 Fair CLR 0 0 0% 76.86 0.0
21 04:35 Calm 16.09 Fair CLR 0 0 0% 76.84 0.0
21 04:15 S 6 11.27 Fair CLR 0 0 0% 76.86 0.0
21 03:55 S 6 16.09 Fair CLR 0 0 0% 76.86 0.0
21 03:35 S 6 11.27 Fair CLR 0 0 0% 76.86 0.0
21 03:15 Calm 16.09 Fair CLR 0 0 0% 76.86 0.0
21 02:55 SW 6 16.09 Fair CLR 0 0 0% 76.86 0.0
21 02:35 S 6 16.09 Fair CLR 0 0 0% 76.86 0.0
21 02:15 Calm 16.09 Fair CLR 0 0 0% 76.89 0.0
21 01:55 Calm 16.09 Fair CLR 0 0 0% 76.89 0.0
21 01:35 Calm 16.09 Fair CLR 0 0 0% 76.89 0.0
21 01:15 S 6 16.09 Fair CLR 0 0 0% 76.91 0.0
21 00:55 S 6 16.09 Fair CLR 0 0 0% 76.91 0.0
21 00:35 S 6 16.09 Fair CLR 0 0 0% 76.94 0.0
21 00:15 Calm 16.09 Fair CLR 0 0 0% 76.94 0.0
20 23:55 S 6 16.09 Fair CLR 0 0 0% 76.94 0.0
20 23:35 S 6 16.09 Fair CLR 0 0 0% 76.96 0.0
20 23:15 SE 6 16.09 Fair CLR 0 0 0% 76.96 0.0
20 22:55 SE 7 16.09 Fair CLR 0 0 0% 76.96 0.0
20 22:35 SE 7 16.09 Fair CLR 0 0 0% 76.96 0.0
20 21:55 SE 9 16.09 Fair CLR 0 0 0% 76.94 0.0
20 21:15 SE 9 16.09 Fair CLR 0 0 0% 76.94 0.0
20 20:55 SE 9 16.09 Fair CLR 0 0 0% 76.91 0.0
20 18:55 SE 11 4.02 Fog/Mist SCT003 0 0 0% 76.94 0.0
20 18:35 SE 13 11.27 Fair CLR 0 0 0% 76.94 0.0
20 17:55 SE 15 16.09 Fair CLR 0 0 0% 76.94 0.0
20 16:35 SE 11 16.09 Fair CLR 0 0 0% 76.99 0.0
20 16:15 S 15 16.09 Fair CLR 0 0 0% 77.01 0.0
20 15:55 S 13 16.09 Fair CLR 0 0 0% 77.04 0.0
20 15:35 SE 13 16.09 Fair CLR 0 0 0% 77.04 0.0
20 14:15 S 13 16.09 Fair CLR 0 0 0% 77.06 0.0
20 13:15 S 17 16.09 Mostly Cloudy BKN040 BKN046 0 0 0% 77.09 0.0
20 12:35 SE 13 16.09 Partly Cloudy SCT036 0 0 0% 77.11 0.0
20 12:15 S 11 16.09 Mostly Cloudy BKN036 0 0 0% 77.11 0.0
20 11:35 SE 11 16.09 Mostly Cloudy BKN034 BKN043 0 0 0% 77.11 0.0
20 10:55 SE 7 16.09 Partly Cloudy SCT048 0 0 0% 77.14 0.0
20 10:35 SE 7 16.09 Partly Cloudy SCT030 0 0 0% 77.14 0.0
20 09:55 SE 7 16.09 Fair CLR 0 0 0% 77.14 0.0
20 09:35 E 6 16.09 Fair CLR 0 0 0% 77.17 0.0
20 09:15 Calm 16.09 Partly Cloudy SCT055 0 0 0% 77.17 0.0
20 08:55 Calm 16.09 Partly Cloudy SCT021 SCT026 0 0 0% 77.17 0.0
20 08:35 Calm 16.09 Partly Cloudy SCT023 0 0 0% 77.17 0.0
20 08:15 S 6 16.09 Fair CLR 0 0 0% 77.17 0.0
20 07:55 SE 6 16.09 Fair CLR 0 0 0% 77.14 0.0
20 07:35 Calm 16.09 Fair CLR 0 0 0% 77.11 0.0
20 07:15 Calm 16.09 Fair CLR 0 0 0% 77.11 0.0
20 06:55 Calm 16.09 Fair CLR 0 0 0% 77.11 0.0
20 06:35 Calm 16.09 Fair CLR 0 0 0% 77.09 0.0
20 06:15 Calm 11.27 Fair CLR 0 0 0% 77.09 0.0
20 05:55 Calm 16.09 Fair CLR 0 0 0% 77.09 0.0
20 05:35 Calm 16.09 Fair CLR 0 0 0% 77.06 0.0
20 05:15 Calm 16.09 Fair CLR 0 0 0% 77.06 0.0
20 04:55 Calm 16.09 Fair CLR 0 0 0% 77.04 0.0
20 04:35 Calm 11.27 Fair CLR 0 0 0% 77.06 0.0
20 04:15 Calm 16.09 Fair CLR 0 0 0% 77.04 0.0
20 03:55 Calm 11.27 Fair CLR 0 0 0% 77.04 0.0
20 03:35 Calm 16.09 Fair CLR 0 0 0% 77.04 0.0
20 03:15 Calm 16.09 Fair CLR 0 0 0% 77.01 0.0
20 02:55 Calm 16.09 Fair CLR 0 0 0% 77.01 0.0
20 02:35 Calm 16.09 Fair CLR 0 0 0% 77.04 0.0
20 02:15 Calm 16.09 Fair CLR 0 0 0% 77.04 0.0
20 01:55 Calm 11.27 Fair CLR 0 0 0% 77.04 0.0
20 01:35 Calm 16.09 Fair CLR 0 0 0% 77.04 0.0
20 01:15 Calm 16.09 Fair CLR 0 0 0% 77.04 0.0
20 00:55 Calm 16.09 Fair CLR 0 0 0% 77.04 0.0
20 00:35 Calm 16.09 Fair CLR 0 0 0% 77.04 0.0
20 00:15 Calm 16.09 Fair CLR 0 0 0% 77.06 0.0
19 23:55 Calm 16.09 Fair CLR 0 0 0% 77.06 0.0
19 23:35 SE 6 16.09 Fair CLR 0 0 0% 77.06 0.0
19 23:15 SE 7 16.09 Fair CLR 0 0 0% 77.06 0.0
19 22:55 SE 7 16.09 Fair CLR 0 0 0% 77.09 0.0
19 22:35 SE 9 16.09 Fair CLR 0 0 0% 77.09 0.0
19 22:15 SE 9 16.09 Fair CLR 0 0 0% 77.09 0.0
19 21:55 SE 7 16.09 Fair CLR 0 0 0% 77.09 0.0
19 21:35 SE 9 16.09 Fair CLR 0 0 0% 77.09 0.0
19 21:15 SE 9 16.09 Fair CLR 0 0 0% 77.09 0.0
19 20:55 SE 7 16.09 Fair CLR 0 0 0% 77.09 0.0
19 20:35 SE 7 16.09 Fair CLR 0 0 0% 77.06 0.0
19 20:15 SE 9 16.09 Fair CLR 0 0 0% 77.06 0.0
19 18:55 SE 7 16.09 Fair CLR 0 0 0% 77.06 0.0
19 18:35 SE 11 16.09 Fair CLR 0 0 0% 77.04 0.0
19 18:15 SE 15 16.09 Fair CLR 0 0 0% 77.06 0.0
19 17:55 SE 13 16.09 Fair CLR 0 0 0% 77.06 0.0
19 17:35 SE 17 16.09 Fair CLR 0 0 0% 77.06 0.0
19 17:15 SE 15 16.09 Fair CLR 0 0 0% 77.09 0.0
19 16:55 SE 13 16.09 Fair CLR 0 0 0% 77.09 0.0
19 16:15 SE 13 16.09 Partly Cloudy SCT033 SCT039 0 0 0% 77.09 0.0
19 15:55 SE 17 16.09 Partly Cloudy SCT033 SCT040 0 0 0% 77.09 0.0
19 14:55 S 11 16.09 Partly Cloudy SCT033 0 0 0% 77.11 0.0
19 14:35 SE 13 16.09 Partly Cloudy SCT035 0 0 0% 77.14 0.0
19 13:55 SE 17 16.09 Partly Cloudy SCT035 0 0 0% 77.11 0.0
19 10:55 SE 13 16.09 Mostly Cloudy SCT030 BKN040 0 0 0% 77.17 0.0
19 10:35 E 7 16.09 Partly Cloudy SCT041 0 0 0% 77.17 0.0
19 10:15 SE 11 16.09 Fair CLR 0 0 0% 77.17 0.0
19 09:55 E 7 16.09 Fair CLR 0 0 0% 77.17 0.0
19 09:35 E 7 16.09 Fair CLR 0 0 0% 77.17 0.0
19 09:15 Calm 16.09 Fair CLR 0 0 0% 77.17 0.0
19 08:55 SE 9 16.09 Fair CLR 0 0 0% 77.14 0.0
19 08:35 Calm 16.09 Fair CLR 0 0 0% 77.14 0.0
19 08:15 E 6 16.09 Fair CLR 0 0 0% 77.11 0.0
19 07:55 Calm 16.09 Fair CLR 0 0 0% 77.09 0.0
19 07:35 Calm 16.09 Fair CLR 0 0 0% 77.09 0.0
19 07:15 Calm 16.09 Fair CLR 0 0 0% 77.09 0.0
19 06:55 Calm 16.09 Fair CLR 0 0 0% 77.09 0.0
19 06:35 Calm 16.09 Fair CLR 0 0 0% 77.06 0.0
19 06:15 Calm 16.09 Fair CLR 0 0 0% 77.06 0.0
19 05:55 Calm 16.09 Fair CLR 0 0 0% 77.04 0.0
19 05:35 Calm 16.09 Fair CLR 0 0 0% 77.04 0.0
19 04:55 Calm 11.27 Fair CLR 0 0 0% 77.01 0.0
19 04:35 Calm 16.09 Fair CLR 0 0 0% 76.99 0.0
19 04:15 Calm 11.27 Fair CLR 0 0 0% 76.96 0.0
19 03:55 Calm 2.01 Fog/Mist VV007 0 0 0% 76.96 0.0
19 03:35 Calm 11.27 Fair CLR 0 0 0% 76.96 0.0
19 03:15 Calm 16.09 Fair CLR 0 0 0% 76.96 0.0
19 02:55 Calm 16.09 Fair CLR 0 0 0% 76.96 0.0
19 02:35 Calm 16.09 Fair CLR 0 0 0% 76.96 0.0
19 02:15 Calm 16.09 Fair CLR 0 0 0% 76.96 0.0
19 01:55 SE 7 16.09 Fair CLR 0 0 0% 76.96 0.0
19 01:35 SE 9 16.09 Fair CLR 0 0 0% 76.94 0.0
19 00:55 SE 9 16.09 Fair CLR 0 0 0% 76.96 0.0
19 00:35 SE 7 16.09 Fair CLR 0 0 0% 76.96 0.0
19 00:15 SE 7 16.09 Fair CLR 0 0 0% 76.96 0.0
18 23:55 Calm 16.09 Fair CLR 0 0 0% 76.96 0.0
18 23:35 SE 7 16.09 Fair CLR 0 0 0% 76.94 0.0
18 23:15 SE 9 16.09 Fair CLR 0 0 0% 76.96 0.0
18 22:55 SE 7 16.09 Fair CLR 0 0 0% 76.96 0.0
18 22:35 SE 9 16.09 Fair CLR 0 0 0% 76.96 0.0
18 22:15 SE 9 16.09 Fair CLR 0 0 0% 76.94 0.0
18 21:55 SE 9 16.09 Fair CLR 0 0 0% 76.91 0.0
18 21:35 SE 9 16.09 Fair CLR 0 0 0% 76.91 0.0
18 21:15 SE 6 16.09 Fair CLR 0 0 0% 76.91 0.0
18 20:55 SE 7 16.09 Fair CLR 0 0 0% 76.91 0.0
18 20:35 SE 7 16.09 Fair CLR 0 0 0% 76.91 0.0
18 20:15 SE 6 16.09 Fair CLR 0 0 0% 76.89 0.0
18 19:55 SE 9 16.09 Fair CLR 0 0 0% 76.89 0.0
18 18:55 SE 13 16.09 Fair CLR 0 0 0% 76.86 0.0
18 18:35 S 15 16.09 Fair CLR 0 0 0% 76.84 0.0
18 18:15 SE 15 16.09 Fair CLR 0 0 0% 76.84 0.0
18 17:55 S 13 16.09 Fair CLR 0 0 0% 76.86 0.0
18 17:35 S 19 16.09 Fair CLR 0 0 0% 76.86 0.0
18 17:15 SE 11 16.09 Fair CLR 0 0 0% 76.89 0.0
18 16:55 SE 13 G 26 16.09 Fair CLR 0 0 0% 76.89 0.0
18 16:35 SE 19 16.09 Fair CLR 0 0 0% 76.86 0.0
18 16:15 SE 19 G 26 16.09 Fair CLR 0 0 0% 76.86 0.0
18 15:55 SE 17 16.09 Fair CLR 0 0 0% 76.89 0.0
18 15:35 SE 15 16.09 Fair CLR 0 0 0% 76.91 0.0
18 14:55 SE 6 16.09 Fair CLR 0 0 0% 76.91 0.0
18 14:35 SE 15 16.09 Fair CLR 0 0 0% 76.91 0.0
18 14:15 SE 9 16.09 Fair CLR 0 0 0% 76.91 0.0
18 13:55 SE 13 16.09 Fair CLR 0 0 0% 76.91 0.0
18 13:35 SE 17 16.09 Fair CLR 0 0 0% 76.91 0.0
18 13:15 S 9 16.09 Fair CLR 0 0 0% 76.91 0.0
18 12:55 SE 13 16.09 Fair CLR 0 0 0% 76.91 0.0
Date Time (edt) Wind (kph) Vis. (km) Weather Sky Cond. Air Dwpt Max. Min. Relative Humidity Wind Chill (°C) Heat Index (°C) altimeter (cm) sea level (mb) 1 hr 3 hr 6 hr
6 hour
Temperature (ºC) Pressure Precipitation (cm)